Huron, SD

3:04 AM CDT on July 22, 2017 (GMT -0500)
Huron Regional

Weather History for KHON - January, 2013

Change the Weather History Date:

Wednesday, January 23, 2013

  Actual Average Record
Temperature  
Mean Temperature 7 °F 17 °F  
Max Temperature 13 °F 27 °F 57 °F (1981)
Min Temperature 0 °F 7 °F -24 °F (2003)
Degree Days  
Heating Degree Days 58 48  
Month to date heating degree days 1086 1119  
Since 1 July heating degree days 4160 4239  
Cooling Degree Days 0 0  
Month to date cooling degree days 0 0  
Year to date cooling degree days 0 0  
Moisture  
Dew Point 0 °F    
Average Humidity 79    
Maximum Humidity 96    
Minimum Humidity 61    
Precipitation  
Precipitation 0.00 in 0.02 in 0.28 in (1894)
Month to date precipitation 0.10 0.37  
Year to date precipitation 0.10 0.37  
Snow  
Snow 0.00 in 0.30 in 3.40 in (1982)
Month to date snowfall 3.8 5.4  
Since 1 July snowfall 17.9 21.7  
Snow Depth 4.00 in    
Sea Level Pressure  
Sea Level Pressure 30.45 in    
Wind  
Wind Speed 11 mph (North)    
Max Wind Speed 21 mph    
Max Gust Speed 25 mph    
Visibility 10 miles    
Events      
T = Trace of Precipitation, MM = Missing Value Source: NWS Daily Summary

Daily Weather History Graph

Daily Weather History Graph

Search for Another Location

Airport or City:

Trip Planner

Search our weather history database for the weather conditions in past years. The results will help you decide how hot, cold, wet, or windy it might be!

Date:

Astronomy

Jan. 23, 2013 Rise Set
Actual Time 7:59 AM CST 5:30 PM CST
Civil Twilight 7:28 AM CST 6:02 PM CST
Nautical Twilight 6:52 AM CST 6:37 PM CST
Astronomical Twilight 6:18 AM CST 7:11 PM CST
Moon 2:40 PM CST (1/23) 5:14 AM CST (1/23)
Length of Visible Light 10h 33m
Length of Day
9h 30m
Waxing Gibbous, 89% of the Moon is Illuminated
Jan 23
Waxing Gibbous
Jan 26
Full
Feb 3
Last Quarter
Feb 10
New
Feb 17
First Quarter

Hourly Weather History & Observations

Time (CST) Temp. Windchill Dew Point Humidity Pressure Visibility Wind Dir Wind Speed Gust Speed Precip Events Conditions
12:55 AM 10.9 °F - 7.0 °F 84% 30.22 in 10.0 mi Calm Calm - N/A   Clear
1:55 AM 8.1 °F - 5.0 °F 87% 30.22 in 10.0 mi Calm Calm - N/A   Clear
2:55 AM 5.0 °F - 3.0 °F 92% 30.24 in 10.0 mi Calm Calm - N/A   Clear
3:55 AM 3.9 °F -5.3 °F 1.9 °F 91% 30.24 in 10.0 mi West 4.6 mph - N/A   Clear
4:55 AM 5.0 °F -4.1 °F 1.9 °F 87% 30.25 in 10.0 mi NW 4.6 mph - N/A   Clear
5:55 AM 8.1 °F -5.3 °F 5.0 °F 87% 30.26 in 10.0 mi NW 9.2 mph - N/A   Clear
6:55 AM 7.0 °F -5.7 °F 3.0 °F 84% 30.30 in 10.0 mi NW 8.1 mph - N/A   Clear
7:55 AM 9.0 °F -4.2 °F 5.0 °F 84% 30.32 in 10.0 mi NNW 9.2 mph - N/A   Clear
8:55 AM 10.0 °F -5.9 °F 5.0 °F 80% 30.35 in 10.0 mi North 13.8 mph - N/A   Clear
9:55 AM 10.9 °F -7.5 °F 3.9 °F 73% 30.39 in 10.0 mi North 19.6 mph 23.0 mph N/A   Clear
10:55 AM 10.9 °F -5.9 °F 3.0 °F 70% 30.43 in 10.0 mi North 16.1 mph - N/A   Clear
11:55 AM 12.0 °F -5.1 °F 3.9 °F 70% 30.46 in 10.0 mi North 17.3 mph - N/A   Clear
12:55 PM 12.0 °F -5.1 °F 1.0 °F 61% 30.47 in 10.0 mi North 17.3 mph 24.2 mph N/A   Clear
1:55 PM 10.9 °F -5.9 °F 1.9 °F 67% 30.48 in 10.0 mi North 16.1 mph - N/A   Partly Cloudy
2:55 PM 9.0 °F -9.5 °F -0.9 °F 64% 30.51 in 10.0 mi North 18.4 mph - N/A   Clear
3:55 PM 6.8 °F -10.0 °F -2.2 °F 67% 30.46 in 10.0 mi North 13.8 mph - N/A   Partly Cloudy
4:55 PM 6.1 °F -12.2 °F -2.0 °F 69% 30.57 in 10.0 mi North 16.1 mph - N/A   Clear
5:55 PM 3.9 °F -14.3 °F -4.0 °F 70% 30.60 in 10.0 mi North 15.0 mph - N/A   Clear
6:55 PM 3.0 °F -15.5 °F -5.1 °F 69% 30.62 in 10.0 mi North 15.0 mph - N/A   Clear
7:55 PM 1.9 °F -13.8 °F -6.0 °F 69% 30.63 in 10.0 mi North 10.4 mph - N/A   Clear
8:55 PM 1.9 °F -11.8 °F -6.0 °F 69% 30.63 in 10.0 mi North 8.1 mph - N/A   Clear
9:55 PM 1.0 °F -14.0 °F -7.1 °F 69% 30.65 in 10.0 mi NNE 9.2 mph - N/A   Clear
10:55 PM 1.0 °F -14.9 °F -9.0 °F 63% 30.65 in 10.0 mi NE 10.4 mph - N/A   Clear
11:55 PM 1.0 °F -11.7 °F -8.0 °F 66% 30.65 in 10.0 mi ENE 6.9 mph - N/A   Clear